カタログに戻る

COSMOS 2488

運用中ナビゲーションPO
NORAD 39483·PAYLOAD·🇷🇺 Russia

打ち上げ Dec 25, 2013 から Plesetsk Cosmodrome

Loading…

次のパス (今後24時間)

TLE

最新Source: Space-Track

元期: Sep 14, 2026, 15:06 UTC

1 39483U 13076A   26257.62951741  .00000081  00000-0  51632-3 0  9990
2 39483  82.4808 112.9713 0018505 262.2561  97.6417 12.42908477577003

AllMySatでCOSMOS 2488をリアルタイム追跡

Download on the App Store